Cloud_Cover
100 100 100 100 100 100 100 100 100 100 100 100 100 100 100 100 100 100 100 100 100 100
100 100 98 100 100 100 100 100 100 100 100 100 100 100 100 100 100 100 100 100 100 100
100 99 98 64 100 100 100 100 100 100 100 100 100 100 100 100 100 100 100 100 100 97
20 31 82 69 29 13 39 83 100 100 100 100 100 100 100 100 100 100 100 34 56 28
10 22 20 4 16 19 37 87 92 51 8 50 34 63 100 18 65 59 43 59 100 78
0 4 3 3 3 18 29 13 50 42 18 76 66 82 67 97 95 86 94 100 99 100
0 1 0 1 3 5 4 39 87 100 35 99 100 91 77 98 89 96 100 100 100 100
4 16 3 0 0 2 0 15 82 93 45 14 15 97 94 100 99 100 97 100 100 99
0 5 5 4 10 43 5 5 30 4 1 5 12 5 31 82 99 100 94 100 100 100
32 5 5 5 9 39 28 42 81 92 68 24 12 28 89 95 59 100 99 100 100 100
100 78 57 91 100 79 41 21 87 98 84 65 65 94 100 100 100 99 100 100 100 100
67 100 100 98 100 100 99 56 86 87 100 100 85 100 100 100 100 100 100 100 100 100
86 60 98 100 100 100 100 100 100 100 100 100 100 100 100 100 100 100 100 100 100 100
100 100 100 87 99 100 100 100 100 100 100 100 100 100 100 100 100 100 100 100 100 100